Regional Weather Roundup
Issued by NWS

Home | Current Version | Previous Version | Graphics & Text | Print | Product List | Glossary On
Versions: 1 2 3 4 5 6 7 8 9 10 11 12 13 14 15 16 17 18 19 20 21 22 23 24 25 26 27 28 29 30 31 32 33 34 35 36 37 38 39 40 41 42 43 44 45 46 47 48 49 50
000
ASUS43 KFSD 230310
RWRSD

WEATHER ROUNDUP FOR SOUTH DAKOTA
NATIONAL WEATHER SERVICE SIOUX FALLS SD
1000 PM CDT SUN OCT 22 2017

NOTE: "FAIR" INDICATES FEW OR NO CLOUDS BELOW 12,000 FEET WITH NO
SIGNIFICANT WEATHER AND/OR OBSTRUCTIONS TO VISIBILITY.


SDZ001>005-009-010-012>017-230400-
NORTHWEST AND NORTH CENTRAL SOUTH DAKOTA

CITY           SKY/WX    TMP DP  RH WIND       PRES   REMARKS
BUFFALO          N/A     50  43  77 NW21      29.81R
MOBRIDGE       CLOUDY    55  45  68 S3        29.73F
$$

SDZ012>016-024>037-041>051-057-063-072>074-230400-
SOUTHWEST AND SOUTH CENTRAL SOUTH DAKOTA

CITY           SKY/WX    TMP DP  RH WIND       PRES   REMARKS
RAPID CTY ARPT PTCLDY    62  31  31 NW17      29.89R
PIERRE         LGT RAIN  58  35  42 W8        29.79R
CUSTER         CLOUDY    49  26  41 W3        29.98R
ELLSWORTH AFB  CLOUDY    62  30  30 NW14      29.89R
PHILIP         PTCLDY    56  33  42 W3        29.82R
PINE RIDGE     MOCLDY    56  31  38 SW7       29.92S
SPEARFISH      MOCLDY    55  34  44 W17       29.95R
WINNER         FAIR      56  34  43 S12       29.83R
$$

SDZ004>011-016>023-039-040-230400-
NORTHEAST SOUTH DAKOTA

CITY           SKY/WX    TMP DP  RH WIND       PRES   REMARKS
ABERDEEN       MOCLDY    57  34  41 S10       29.74F
WATERTOWN      CLOUDY    54  37  52 S9        29.79F
BROOKINGS      CLOUDY    53  33  46 S9        29.85S
SISSETON         N/A     60  33  36 SW10      29.74F
$$

SDZ017-020-022-023-036>040-048>070-230400-
SOUTHEAST SOUTH DAKOTA

CITY           SKY/WX    TMP DP  RH WIND       PRES   REMARKS
SIOUX FALLS    CLOUDY    59  32  36 S10       29.86F
HURON          CLOUDY    57  34  41 S13       29.79F
CHAMBERLAIN    CLEAR     50  35  55 S5        29.82S
MITCHELL       CLOUDY    57  35  43 S7        29.84S
YANKTON        CLEAR     57  32  38 SW10      29.88F
$$

ABBREVIATIONS USED IN REMARKS
   TC - TEMPERATURE IN CELSIUS
  WCI - WIND CHILL INDEX
   HX - HEAT INDEX
  VSB - VISIBILITY





USA.gov is the U.S. government's official web portal to all federal, state and local government web resources and services.